IBB4FM LEJR-GCXO

Flight info

Callsign IBB4FM
Flight time N/A
Altitude 33000
Route VJF L82 RUNAX UL82 IBALU/N0457F350 UN857 TERTO
Aircraft E195/M-SDFGRY/LB1

Departure

Time 2026-04-29 16:01
Airport Jerez Airport (LEJR)

Arrival

Time N/A
Airport Tenerife Norte-Ciudad de La Laguna Airport (GCXO)
Time Latitude Longitude Altitude Speed Heading
2026-04-29 15:40 36.74979 -6.06307 87 ft 0 kts 291°
2026-04-29 15:52 36.74975 -6.06295 88 ft 4 kts 291°
2026-04-29 15:53 36.74966 -6.06263 88 ft 4 kts 287°
2026-04-29 15:53 36.74959 -6.06231 85 ft 4 kts 283°
2026-04-29 15:53 36.74957 -6.06219 84 ft 0 kts 283°
2026-04-29 15:56 36.74936 -6.06239 84 ft 10 kts 193°
2026-04-29 15:56 36.74834 -6.06266 83 ft 15 kts 186°
2026-04-29 15:56 36.74772 -6.06198 84 ft 13 kts 114°
2026-04-29 15:57 36.74758 -6.06099 83 ft 11 kts 60°
2026-04-29 15:57 36.74827 -6.06053 85 ft 12 kts 21°
2026-04-29 15:57 36.74914 -6.06011 84 ft 14 kts 20°
2026-04-29 15:57 36.75016 -6.05961 86 ft 18 kts 21°
2026-04-29 15:58 36.75145 -6.05898 85 ft 21 kts 21°
2026-04-29 15:58 36.75277 -6.05833 86 ft 20 kts 22°
2026-04-29 15:58 36.75403 -6.05772 86 ft 19 kts 22°
2026-04-29 15:58 36.75463 -6.05686 84 ft 12 kts 104°
2026-04-29 15:59 36.75458 -6.05669 84 ft 0 kts 111°
2026-04-29 15:59 36.75458 -6.05668 84 ft 0 kts 111°
2026-04-29 15:59 36.75449 -6.05638 87 ft 7 kts 110°
2026-04-29 16:00 36.75416 -6.05567 93 ft 11 kts 144°
2026-04-29 16:00 36.75357 -6.05572 91 ft 0 kts 200°
2026-04-29 16:00 36.75321 -6.05590 91 ft 25 kts 202°
2026-04-29 16:00 36.74966 -6.05765 91 ft 85 kts 201°
2026-04-29 16:01 36.74234 -6.06125 88 ft 139 kts 204°
2026-04-29 16:01 36.73233 -6.06632 297 ft 169 kts 202°
2026-04-29 16:01 36.72071 -6.07205 676 ft 180 kts 205°
2026-04-29 16:01 36.70976 -6.07789 908 ft 171 kts 205°
2026-04-29 16:02 36.69798 -6.08417 1201 ft 189 kts 205°
2026-04-29 16:02 36.68530 -6.09073 1700 ft 202 kts 205°
2026-04-29 16:02 36.67163 -6.09768 2164 ft 218 kts 204°
2026-04-29 16:02 36.65705 -6.10497 2796 ft 230 kts 204°
2026-04-29 16:03 36.64201 -6.11247 3444 ft 242 kts 204°
2026-04-29 16:03 36.62607 -6.12046 4159 ft 249 kts 204°
2026-04-29 16:03 36.60984 -6.12856 4993 ft 253 kts 203°
2026-04-29 16:03 36.59341 -6.13676 5832 ft 256 kts 204°
2026-04-29 16:04 36.57671 -6.14434 6686 ft 257 kts 195°
2026-04-29 16:04 36.55875 -6.14356 7458 ft 267 kts 166°
2026-04-29 16:04 36.54139 -6.13482 8231 ft 271 kts 162°
2026-04-29 16:04 36.52389 -6.12593 8987 ft 274 kts 162°
2026-04-29 16:05 36.50615 -6.11686 9744 ft 277 kts 162°
2026-04-29 16:05 36.48817 -6.10762 10432 ft 282 kts 162°
2026-04-29 16:05 36.46992 -6.09820 11129 ft 286 kts 162°
2026-04-29 16:05 36.45146 -6.08856 11823 ft 290 kts 162°
2026-04-29 16:06 36.43279 -6.07878 12555 ft 293 kts 162°
2026-04-29 16:06 36.41391 -6.06879 13294 ft 298 kts 162°
2026-04-29 16:06 36.39473 -6.05859 14020 ft 302 kts 161°
2026-04-29 16:06 36.37530 -6.04819 14732 ft 306 kts 161°
2026-04-29 16:07 36.35562 -6.03757 15457 ft 310 kts 162°
2026-04-29 16:07 36.34218 -6.03029 15923 ft 314 kts 161°
2026-04-29 16:07 36.31549 -6.01572 16834 ft 319 kts 161°
2026-04-29 16:07 36.29507 -6.00447 17499 ft 323 kts 161°
2026-04-29 16:08 36.27436 -5.99314 18138 ft 326 kts 164°
2026-04-29 16:08 36.25245 -5.98867 18643 ft 317 kts 191°
2026-04-29 16:08 36.23127 -5.99492 19222 ft 312 kts 206°
2026-04-29 16:08 36.21280 -6.00850 19808 ft 308 kts 223°
2026-04-29 16:09 36.19831 -6.02793 20412 ft 308 kts 234°
2026-04-29 16:09 36.18531 -6.04907 21020 ft 310 kts 234°
2026-04-29 16:09 36.17210 -6.07026 21598 ft 312 kts 234°
2026-04-29 16:09 36.15885 -6.09165 22167 ft 314 kts 234°
2026-04-29 16:10 36.14551 -6.11315 22707 ft 316 kts 234°
2026-04-29 16:10 36.13217 -6.13485 23233 ft 318 kts 235°
2026-04-29 16:10 36.11875 -6.15673 23706 ft 320 kts 235°
2026-04-29 16:10 36.10529 -6.17876 24148 ft 322 kts 235°
2026-04-29 16:11 36.09181 -6.20093 24595 ft 323 kts 235°
2026-04-29 16:11 36.07826 -6.22333 24968 ft 327 kts 235°
2026-04-29 16:11 36.06469 -6.24592 25410 ft 328 kts 236°
2026-04-29 16:11 36.05110 -6.26867 25843 ft 330 kts 236°
2026-04-29 16:12 36.03749 -6.29155 26269 ft 331 kts 236°
2026-04-29 16:12 36.02848 -6.30679 26548 ft 332 kts 236°
2026-04-29 16:12 36.01024 -6.33779 27093 ft 334 kts 236°
2026-04-29 16:12 35.99659 -6.36114 27483 ft 336 kts 236°
2026-04-29 16:13 35.98293 -6.38466 27868 ft 338 kts 236°
2026-04-29 16:13 35.96925 -6.40833 28238 ft 339 kts 237°
2026-04-29 16:13 35.95557 -6.43218 28599 ft 341 kts 237°
2026-04-29 16:13 35.94190 -6.45617 28950 ft 343 kts 237°
2026-04-29 16:14 35.92822 -6.48031 29318 ft 344 kts 237°
2026-04-29 16:14 35.91397 -6.50413 29641 ft 346 kts 234°
2026-04-29 16:14 35.89920 -6.52769 29966 ft 348 kts 235°
2026-04-29 16:14 35.88443 -6.55140 30246 ft 350 kts 235°
2026-04-29 16:15 35.86981 -6.57492 30509 ft 351 kts 235°
2026-04-29 16:15 35.85491 -6.59883 30775 ft 353 kts 235°
2026-04-29 16:15 35.83995 -6.62289 31036 ft 354 kts 235°
2026-04-29 16:15 35.82493 -6.64701 31292 ft 356 kts 234°
2026-04-29 16:16 35.80976 -6.67118 31519 ft 358 kts 234°
2026-04-29 16:16 35.79454 -6.69550 31770 ft 359 kts 234°
2026-04-29 16:16 35.77925 -6.71989 32008 ft 361 kts 234°
2026-04-29 16:16 35.76389 -6.74438 32239 ft 362 kts 234°
2026-04-29 16:17 35.74847 -6.76898 32469 ft 363 kts 234°
2026-04-29 16:17 35.73298 -6.79365 32684 ft 365 kts 234°
2026-04-29 16:17 35.71745 -6.81839 32968 ft 363 kts 234°
2026-04-29 16:18 35.68608 -6.86831 33039 ft 375 kts 234°
2026-04-29 16:18 35.65370 -6.91975 33075 ft 386 kts 234°
2026-04-29 16:19 35.62585 -6.96395 33066 ft 395 kts 234°
2026-04-29 16:19 35.59168 -7.01809 32970 ft 406 kts 234°
2026-04-29 16:20 35.55713 -7.07276 32945 ft 409 kts 234°
2026-04-29 16:20 35.52199 -7.12827 32936 ft 414 kts 234°
2026-04-29 16:21 35.48653 -7.18417 32951 ft 415 kts 234°
2026-04-29 16:21 35.45096 -7.24017 32926 ft 417 kts 234°
2026-04-29 16:22 35.41531 -7.29621 32946 ft 417 kts 234°
2026-04-29 16:22 35.37963 -7.35221 32948 ft 417 kts 234°
2026-04-29 16:23 35.34390 -7.40820 32949 ft 417 kts 234°
2026-04-29 16:23 35.30815 -7.46413 32945 ft 417 kts 234°
2026-04-29 16:24 35.27240 -7.52002 32948 ft 417 kts 234°
2026-04-29 16:24 35.23657 -7.57593 32951 ft 418 kts 233°
2026-04-29 16:25 35.20058 -7.63202 32953 ft 420 kts 233°
2026-04-29 16:25 35.16446 -7.68825 32952 ft 420 kts 233°
2026-04-29 16:26 35.12834 -7.74443 32950 ft 421 kts 233°
2026-04-29 16:26 35.09215 -7.80057 32950 ft 421 kts 233°
2026-04-29 16:27 35.05595 -7.85668 32953 ft 421 kts 233°
2026-04-29 16:27 35.01970 -7.91275 32954 ft 421 kts 233°
2026-04-29 16:28 34.98346 -7.96875 32931 ft 421 kts 233°
2026-04-29 16:28 34.94739 -8.02444 32938 ft 422 kts 233°
2026-04-29 16:29 34.91103 -8.08046 32959 ft 422 kts 233°
2026-04-29 16:29 34.87463 -8.13645 32974 ft 421 kts 233°
2026-04-29 16:30 34.83819 -8.19239 32965 ft 421 kts 233°
2026-04-29 16:30 34.80175 -8.24826 32943 ft 421 kts 233°
2026-04-29 16:31 34.76502 -8.30447 32935 ft 422 kts 233°
2026-04-29 16:31 34.72852 -8.36026 32946 ft 423 kts 233°
2026-04-29 16:32 34.69218 -8.41578 32981 ft 422 kts 233°
2026-04-29 16:32 34.65521 -8.47201 32979 ft 423 kts 233°
2026-04-29 16:33 34.60030 -8.55547 32943 ft 424 kts 233°
2026-04-29 16:33 34.56320 -8.61168 32932 ft 424 kts 233°
2026-04-29 16:34 34.52661 -8.66711 32942 ft 425 kts 233°
2026-04-29 16:34 34.48977 -8.72291 32970 ft 424 kts 233°
2026-04-29 16:35 34.45280 -8.77872 32994 ft 424 kts 231°
2026-04-29 16:35 34.43123 -8.80317 33010 ft 426 kts 220°
2026-04-29 16:35 34.40781 -8.82532 32989 ft 426 kts 220°
2026-04-29 16:36 34.36116 -8.86987 32934 ft 427 kts 220°
2026-04-29 16:36 34.31459 -8.91447 32920 ft 428 kts 221°
2026-04-29 16:37 34.26801 -8.95910 32934 ft 428 kts 221°
2026-04-29 16:37 34.22930 -8.99620 32989 ft 426 kts 221°
2026-04-29 16:38 34.17487 -9.04832 33002 ft 427 kts 221°
2026-04-29 16:38 34.12832 -9.09284 33001 ft 425 kts 220°
2026-04-29 16:39 34.08184 -9.13727 32935 ft 426 kts 220°
2026-04-29 16:39 34.03535 -9.18162 32902 ft 427 kts 220°
2026-04-29 16:40 33.98892 -9.22585 32921 ft 427 kts 220°
2026-04-29 16:40 33.94246 -9.27005 33003 ft 425 kts 220°
2026-04-29 16:41 33.89604 -9.31416 33025 ft 423 kts 220°
2026-04-29 16:41 33.84958 -9.35823 32955 ft 425 kts 220°
2026-04-29 16:42 33.80307 -9.40226 32913 ft 427 kts 220°
2026-04-29 16:42 33.75687 -9.44596 32977 ft 428 kts 220°
2026-04-29 16:43 33.70992 -9.49033 32985 ft 432 kts 220°
2026-04-29 16:43 33.66264 -9.53493 32983 ft 433 kts 220°
2026-04-29 16:44 33.61525 -9.57955 32961 ft 433 kts 220°
2026-04-29 16:44 33.56789 -9.62410 32963 ft 433 kts 220°
2026-04-29 16:45 33.52049 -9.66863 32963 ft 433 kts 220°
2026-04-29 16:45 33.47304 -9.71314 32961 ft 433 kts 220°
2026-04-29 16:46 33.42560 -9.75760 32955 ft 433 kts 220°
2026-04-29 16:46 33.37813 -9.80203 32950 ft 433 kts 220°
2026-04-29 16:47 33.33067 -9.84639 32947 ft 434 kts 220°
2026-04-29 16:47 33.28303 -9.89087 32949 ft 436 kts 220°
2026-04-29 16:48 33.23525 -9.93542 32956 ft 436 kts 220°
2026-04-29 16:48 33.18743 -9.97995 32973 ft 436 kts 220°
2026-04-29 16:49 33.13954 -10.02446 32981 ft 436 kts 220°
2026-04-29 16:49 33.09165 -10.06897 32977 ft 436 kts 220°
2026-04-29 16:50 33.04373 -10.11341 32966 ft 436 kts 220°
2026-04-29 16:50 32.99569 -10.15770 32959 ft 437 kts 219°
2026-04-29 16:51 32.94784 -10.20136 32966 ft 437 kts 219°
2026-04-29 16:51 32.89934 -10.24567 32960 ft 437 kts 219°
2026-04-29 16:52 32.85151 -10.28939 32979 ft 436 kts 219°
2026-04-29 16:52 32.80335 -10.33338 32970 ft 436 kts 219°
2026-04-29 16:53 32.75517 -10.37733 32973 ft 436 kts 219°
2026-04-29 16:53 32.70702 -10.42120 32971 ft 436 kts 219°
2026-04-29 16:54 32.65888 -10.46500 32964 ft 436 kts 219°
2026-04-29 16:54 32.61073 -10.50876 32965 ft 436 kts 219°
2026-04-29 16:55 32.56257 -10.55246 32964 ft 436 kts 219°
2026-04-29 16:55 32.51443 -10.59609 32978 ft 435 kts 219°
2026-04-29 16:56 32.46640 -10.63957 32969 ft 435 kts 219°
2026-04-29 16:56 32.41836 -10.68299 32986 ft 433 kts 219°
2026-04-29 16:57 32.37038 -10.72631 32976 ft 433 kts 219°
2026-04-29 16:57 32.32239 -10.76957 32961 ft 434 kts 219°
2026-04-29 16:58 32.27471 -10.81248 32958 ft 434 kts 219°
2026-04-29 16:58 32.22670 -10.85564 32962 ft 434 kts 219°
2026-04-29 16:59 32.17867 -10.89875 32973 ft 433 kts 219°
2026-04-29 16:59 32.13066 -10.94179 32989 ft 433 kts 219°
2026-04-29 17:00 32.08273 -10.98475 32972 ft 432 kts 219°
2026-04-29 17:00 32.03472 -11.02765 32958 ft 433 kts 219°
2026-04-29 17:01 31.98670 -11.07053 32952 ft 434 kts 219°
2026-04-29 17:01 31.93867 -11.11338 32972 ft 434 kts 219°
2026-04-29 17:02 31.89062 -11.15621 32994 ft 433 kts 219°
2026-04-29 17:02 31.84254 -11.19901 32994 ft 432 kts 219°
2026-04-29 17:03 31.79454 -11.24169 32965 ft 432 kts 219°
2026-04-29 17:03 31.74653 -11.28431 32945 ft 433 kts 219°
2026-04-29 17:04 31.69859 -11.32698 32947 ft 434 kts 218°
2026-04-29 17:04 31.65069 -11.36962 32983 ft 432 kts 218°
2026-04-29 17:05 31.60311 -11.41193 32999 ft 431 kts 218°
2026-04-29 17:05 31.55522 -11.45449 32983 ft 431 kts 218°
2026-04-29 17:06 31.50735 -11.49697 32967 ft 432 kts 218°
2026-04-29 17:06 31.45949 -11.53939 32959 ft 432 kts 218°
2026-04-29 17:07 31.41937 -11.57491 32985 ft 431 kts 218°
2026-04-29 17:07 31.36371 -11.62411 32979 ft 431 kts 218°
2026-04-29 17:08 31.32388 -11.65928 32973 ft 431 kts 218°
2026-04-29 17:08 31.27595 -11.70155 32973 ft 432 kts 218°
2026-04-29 17:09 31.22808 -11.74371 32970 ft 430 kts 218°
2026-04-29 17:09 31.18027 -11.78577 32973 ft 430 kts 218°
2026-04-29 17:10 31.13245 -11.82779 32976 ft 430 kts 218°
2026-04-29 17:10 31.08462 -11.86976 32980 ft 430 kts 218°
2026-04-29 17:11 31.03675 -11.91170 32985 ft 430 kts 218°
2026-04-29 17:11 30.98888 -11.95361 32983 ft 430 kts 218°
2026-04-29 17:12 30.94102 -11.99544 32980 ft 429 kts 218°
2026-04-29 17:12 30.90128 -12.03012 32979 ft 429 kts 218°
2026-04-29 17:13 30.84545 -12.07880 32971 ft 429 kts 217°
2026-04-29 17:13 30.79769 -12.12038 32976 ft 429 kts 217°
2026-04-29 17:14 30.74997 -12.16190 32988 ft 429 kts 217°
2026-04-29 17:14 30.70219 -12.20338 32991 ft 428 kts 217°
2026-04-29 17:15 30.65443 -12.24484 32987 ft 428 kts 217°
2026-04-29 17:15 30.60679 -12.28610 32977 ft 427 kts 217°
2026-04-29 17:16 30.55917 -12.32731 32982 ft 427 kts 217°
2026-04-29 17:16 30.51153 -12.36851 32989 ft 427 kts 217°
2026-04-29 17:17 30.46412 -12.40929 33001 ft 427 kts 217°
2026-04-29 17:17 30.41640 -12.45026 32985 ft 426 kts 217°
2026-04-29 17:18 30.36869 -12.49119 32978 ft 427 kts 217°
2026-04-29 17:18 30.32105 -12.53201 32967 ft 426 kts 218°
2026-04-29 17:19 30.27345 -12.57274 32986 ft 426 kts 217°
2026-04-29 17:19 30.22584 -12.61344 32996 ft 425 kts 217°
2026-04-29 17:20 30.17821 -12.65410 32994 ft 425 kts 217°
2026-04-29 17:20 30.13055 -12.69474 32986 ft 426 kts 217°
2026-04-29 17:21 30.08291 -12.73537 32981 ft 426 kts 218°
2026-04-29 17:21 30.03532 -12.77606 32992 ft 426 kts 218°
2026-04-29 17:22 29.98772 -12.81670 32994 ft 425 kts 218°
2026-04-29 17:22 29.94009 -12.85730 32990 ft 425 kts 217°
2026-04-29 17:23 29.89245 -12.89786 32985 ft 426 kts 217°
2026-04-29 17:23 29.84481 -12.93836 32981 ft 426 kts 217°
2026-04-29 17:24 29.79713 -12.97885 32978 ft 426 kts 217°
2026-04-29 17:24 29.74944 -13.01930 32972 ft 426 kts 218°
2026-04-29 17:25 29.70230 -13.05925 32980 ft 424 kts 218°
2026-04-29 17:25 29.65488 -13.09938 32997 ft 423 kts 218°
2026-04-29 17:26 29.60743 -13.13950 33011 ft 423 kts 218°
2026-04-29 17:26 29.55999 -13.17954 33006 ft 422 kts 218°
2026-04-29 17:27 29.51253 -13.21956 32994 ft 423 kts 218°
2026-04-29 17:27 29.46507 -13.25952 32977 ft 423 kts 218°
2026-04-29 17:28 29.41773 -13.29934 32943 ft 421 kts 218°
2026-04-29 17:28 29.37068 -13.33888 32934 ft 420 kts 218°
2026-04-29 17:29 29.32378 -13.37825 32980 ft 418 kts 218°
2026-04-29 17:29 29.28486 -13.41088 32992 ft 415 kts 218°
2026-04-29 17:30 29.23031 -13.45655 33034 ft 412 kts 218°
2026-04-29 17:30 29.18470 -13.49648 32961 ft 414 kts 229°
2026-04-29 17:31 29.16763 -13.52270 32990 ft 414 kts 240°
2026-04-29 17:31 29.15686 -13.55323 33022 ft 416 kts 252°
2026-04-29 17:31 29.14248 -13.61768 32983 ft 419 kts 253°
2026-04-29 17:32 29.12827 -13.68229 32989 ft 419 kts 253°
2026-04-29 17:32 29.11407 -13.74693 32987 ft 419 kts 253°
2026-04-29 17:33 29.10000 -13.81107 32988 ft 415 kts 253°
2026-04-29 17:33 29.08596 -13.87508 32961 ft 416 kts 253°
2026-04-29 17:34 29.07189 -13.93914 32976 ft 416 kts 253°
2026-04-29 17:34 29.05779 -14.00319 32992 ft 416 kts 253°
2026-04-29 17:35 29.03667 -14.09884 32986 ft 416 kts 253°
2026-04-29 17:36 29.02239 -14.16332 32988 ft 416 kts 253°
2026-04-29 17:36 29.00828 -14.22693 32989 ft 417 kts 253°
2026-04-29 17:37 28.99401 -14.29115 32998 ft 417 kts 253°
2026-04-29 17:37 28.97969 -14.35541 33002 ft 417 kts 253°
2026-04-29 17:38 28.96528 -14.41965 32994 ft 417 kts 253°
2026-04-29 17:38 28.95083 -14.48386 32989 ft 418 kts 253°
2026-04-29 17:39 28.93639 -14.54807 32991 ft 418 kts 253°
2026-04-29 17:39 28.92188 -14.61245 33017 ft 421 kts 253°
2026-04-29 17:40 28.90726 -14.67732 33025 ft 422 kts 253°
2026-04-29 17:40 28.89258 -14.74232 33019 ft 422 kts 253°
2026-04-29 17:41 28.87790 -14.80730 32991 ft 421 kts 253°
2026-04-29 17:41 28.86315 -14.87207 32916 ft 423 kts 253°
2026-04-29 17:42 28.84837 -14.93658 32935 ft 423 kts 253°
2026-04-29 17:42 28.83368 -15.00064 33081 ft 419 kts 253°
2026-04-29 17:43 28.81883 -15.06533 33023 ft 419 kts 253°
2026-04-29 17:43 28.81138 -15.09772 32914 ft 422 kts 253°
2026-04-29 17:43 28.80395 -15.13002 32887 ft 425 kts 253°
2026-04-29 17:44 28.78905 -15.19465 33036 ft 422 kts 253°
2026-04-29 17:44 28.77404 -15.25958 32722 ft 428 kts 253°
2026-04-29 17:44 28.76650 -15.29222 32215 ft 423 kts 253°
2026-04-29 17:45 28.75897 -15.32468 31672 ft 425 kts 253°
2026-04-29 17:45 28.75143 -15.35723 31161 ft 424 kts 254°
2026-04-29 17:45 28.74391 -15.38963 30670 ft 422 kts 254°
2026-04-29 17:45 28.73643 -15.42182 30196 ft 419 kts 254°
2026-04-29 17:46 28.72899 -15.45381 29647 ft 416 kts 254°
2026-04-29 17:46 28.72160 -15.48553 29110 ft 412 kts 254°
2026-04-29 17:46 28.71428 -15.51694 28564 ft 409 kts 254°
2026-04-29 17:46 28.70701 -15.54808 28035 ft 405 kts 254°
2026-04-29 17:47 28.69977 -15.57898 27519 ft 402 kts 253°
2026-04-29 17:47 28.69262 -15.60960 27002 ft 399 kts 254°
2026-04-29 17:47 28.68547 -15.63995 26511 ft 395 kts 253°
2026-04-29 17:47 28.67833 -15.67003 26016 ft 392 kts 253°
2026-04-29 17:48 28.67132 -15.69990 25538 ft 389 kts 253°
2026-04-29 17:48 28.66438 -15.72955 25054 ft 387 kts 254°
2026-04-29 17:48 28.65747 -15.75904 24593 ft 384 kts 254°
2026-04-29 17:48 28.65061 -15.78828 24115 ft 382 kts 254°
2026-04-29 17:49 28.64376 -15.81741 23685 ft 380 kts 254°
2026-04-29 17:49 28.63695 -15.84633 23159 ft 377 kts 254°
2026-04-29 17:49 28.63018 -15.87506 22632 ft 374 kts 254°
2026-04-29 17:49 28.62346 -15.90357 22098 ft 372 kts 254°
2026-04-29 17:50 28.61675 -15.93184 21586 ft 369 kts 253°
2026-04-29 17:50 28.61009 -15.95994 21076 ft 366 kts 254°
2026-04-29 17:50 28.60351 -15.98782 20585 ft 364 kts 253°
2026-04-29 17:50 28.59695 -16.01554 20104 ft 362 kts 254°
2026-04-29 17:51 28.59042 -16.04307 19622 ft 359 kts 254°
2026-04-29 17:51 28.58393 -16.07042 19151 ft 357 kts 253°
2026-04-29 17:51 28.57746 -16.09759 18694 ft 355 kts 253°
2026-04-29 17:51 28.57112 -16.12424 18228 ft 353 kts 253°
2026-04-29 17:52 28.56462 -16.15114 17698 ft 352 kts 253°
2026-04-29 17:52 28.56034 -16.16922 17347 ft 349 kts 254°
2026-04-29 17:52 28.55194 -16.20442 16671 ft 347 kts 254°
2026-04-29 17:52 28.54562 -16.23092 16044 ft 347 kts 254°
2026-04-29 17:53 28.53944 -16.25731 15432 ft 343 kts 256°
2026-04-29 17:53 28.53825 -16.28427 14820 ft 344 kts 278°
2026-04-29 17:53 28.54565 -16.30992 14233 ft 330 kts 289°
2026-04-29 17:53 28.55279 -16.33374 13631 ft 316 kts 286°
2026-04-29 17:54 28.55960 -16.35745 12978 ft 306 kts 286°
2026-04-29 17:54 28.56600 -16.38008 12331 ft 295 kts 286°
2026-04-29 17:54 28.57204 -16.40170 11720 ft 287 kts 286°
2026-04-29 17:54 28.57795 -16.42303 11109 ft 279 kts 285°
2026-04-29 17:55 28.58365 -16.44393 10424 ft 276 kts 285°
2026-04-29 17:55 28.58931 -16.46470 9704 ft 274 kts 285°
2026-04-29 17:55 28.59490 -16.48538 8928 ft 273 kts 285°
2026-04-29 17:55 28.60047 -16.50596 8175 ft 271 kts 285°
2026-04-29 17:56 28.60598 -16.52645 7443 ft 270 kts 285°
2026-04-29 17:56 28.61148 -16.54685 6721 ft 269 kts 285°
2026-04-29 17:56 28.61685 -16.56721 5975 ft 268 kts 281°
2026-04-29 17:56 28.61706 -16.58796 5219 ft 263 kts 252°
2026-04-29 17:57 28.60758 -16.60518 4457 ft 259 kts 220°
2026-04-29 17:57 28.59724 -16.61166 4099 ft 254 kts 194°
2026-04-29 17:57 28.58095 -16.61293 4366 ft 218 kts 180°
2026-04-29 17:57 28.56746 -16.60745 5086 ft 205 kts 136°
2026-04-29 17:58 28.56216 -16.59326 5924 ft 197 kts 91°
2026-04-29 17:58 28.56234 -16.57711 6012 ft 221 kts 98°
2026-04-29 17:58 28.55942 -16.56003 5793 ft 216 kts 110°
2026-04-29 17:58 28.55393 -16.54395 5806 ft 220 kts 117°
2026-04-29 17:59 28.54753 -16.52786 5944 ft 221 kts 116°
2026-04-29 17:59 28.54120 -16.51182 6367 ft 230 kts 119°
2026-04-29 17:59 28.53374 -16.49519 6039 ft 241 kts 118°
2026-04-29 17:59 28.52625 -16.47821 5647 ft 238 kts 117°
2026-04-29 18:00 28.51947 -16.46099 5083 ft 240 kts 113°
2026-04-29 18:00 28.51375 -16.44331 4598 ft 235 kts 106°
2026-04-29 18:00 28.51027 -16.42529 3976 ft 232 kts 101°
2026-04-29 18:00 28.50476 -16.40906 3838 ft 213 kts 116°
2026-04-29 18:01 28.50007 -16.39352 3617 ft 200 kts 111°
2026-04-29 18:01 28.49500 -16.37951 3239 ft 190 kts 111°
2026-04-29 18:01 28.49099 -16.36531 2739 ft 186 kts 111°
2026-04-29 18:01 28.48635 -16.35272 3015 ft 170 kts 113°
2026-04-29 18:02 28.48171 -16.34015 3721 ft 180 kts 114°
2026-04-29 18:02 28.47637 -16.32604 4169 ft 206 kts 115°
2026-04-29 18:02 28.47082 -16.30929 4319 ft 248 kts 110°
2026-04-29 18:02 28.46558 -16.29068 4616 ft 237 kts 108°
2026-04-29 18:03 28.46214 -16.27328 4711 ft 206 kts 103°
2026-04-29 18:03 28.45908 -16.25789 5036 ft 199 kts 104°
2026-04-29 18:03 28.45556 -16.24258 5352 ft 206 kts 107°
2026-04-29 18:03 28.45110 -16.22544 4754 ft 244 kts 108°
2026-04-29 18:04 28.44620 -16.20763 4907 ft 224 kts 109°
2026-04-29 18:04 28.44132 -16.19093 5314 ft 225 kts 110°
2026-04-29 18:04 28.43602 -16.17393 5822 ft 231 kts 110°
2026-04-29 18:04 28.43294 -16.15556 6018 ft 244 kts 86°
2026-04-29 18:05 28.43819 -16.13753 6011 ft 242 kts 53°
2026-04-29 18:05 28.45086 -16.12584 6164 ft 228 kts 17°
2026-04-29 18:05 28.46641 -16.12487 6653 ft 227 kts 341°
2026-04-29 18:05 28.47966 -16.13410 7027 ft 230 kts 309°
2026-04-29 18:06 28.48812 -16.14952 7058 ft 231 kts 296°
2026-04-29 18:06 28.49575 -16.16528 7089 ft 230 kts 297°
2026-04-29 18:06 28.50355 -16.18113 7142 ft 229 kts 297°
2026-04-29 18:06 28.51129 -16.19696 7187 ft 229 kts 297°
2026-04-29 18:07 28.51901 -16.21280 7153 ft 229 kts 297°
2026-04-29 18:07 28.52679 -16.22867 7058 ft 229 kts 297°
2026-04-29 18:07 28.53440 -16.24450 6993 ft 227 kts 296°
2026-04-29 18:07 28.54192 -16.26020 6993 ft 226 kts 297°
2026-04-29 18:08 28.54937 -16.27585 6998 ft 224 kts 290°
2026-04-29 18:08 28.55422 -16.29297 6730 ft 231 kts 285°
2026-04-29 18:08 28.56007 -16.31011 6418 ft 232 kts 288°
2026-04-29 18:08 28.56586 -16.32712 6144 ft 229 kts 292°
2026-04-29 18:09 28.57203 -16.34365 5930 ft 225 kts 287°
2026-04-29 18:09 28.57867 -16.35966 5675 ft 224 kts 294°
2026-04-29 18:09 28.58555 -16.37552 5451 ft 224 kts 297°
2026-04-29 18:09 28.59512 -16.38958 5233 ft 226 kts 307°
2026-04-29 18:10 28.60223 -16.40518 4984 ft 222 kts 280°
2026-04-29 18:10 28.60639 -16.42204 4747 ft 224 kts 296°
2026-04-29 18:10 28.61393 -16.43758 4496 ft 223 kts 289°
2026-04-29 18:10 28.61713 -16.45468 4235 ft 221 kts 276°
2026-04-29 18:11 28.61947 -16.47193 3986 ft 220 kts 278°
2026-04-29 18:11 28.62182 -16.48910 3734 ft 219 kts 277°
2026-04-29 18:11 28.62405 -16.50620 3483 ft 218 kts 275°
2026-04-29 18:11 28.62236 -16.52304 3199 ft 216 kts 245°
2026-04-29 18:12 28.61300 -16.53591 3096 ft 208 kts 221°
2026-04-29 18:12 28.60212 -16.54659 3104 ft 208 kts 218°
2026-04-29 18:12 28.58967 -16.55532 3107 ft 212 kts 211°
2026-04-29 18:12 28.57672 -16.56349 3094 ft 215 kts 204°
2026-04-29 18:13 28.56175 -16.56568 2899 ft 222 kts 169°
2026-04-29 18:13 28.54819 -16.55756 2744 ft 225 kts 134°
2026-04-29 18:13 28.54114 -16.54195 2574 ft 226 kts 97°
2026-04-29 18:13 28.54346 -16.52464 2412 ft 224 kts 60°
2026-04-29 18:14 28.55397 -16.51205 2235 ft 220 kts 38°